FW6341 Weather Reports


Display with metric or nautical units.
time (UTC)temp
F
wind
direction
speed
MPH
gust
MPH
rain 1hr
in
rain 24hr
in
rain mn
in
humidity
%
barometer
mb
20260503172539 69 146 1.0 1.0 0.00 0.00 0.00 62 1012.6
20260503172036 69 287 1.0 1.0 0.00 0.00 0.00 63 1012.7
20260503171532 68 266 1.0 1.0 0.00 0.00 0.00 63 1012.6
20260503171030 68 95 0.0 1.0 0.00 0.00 0.00 66 1012.8
20260503170526 67 86 1.0 1.0 0.00 0.00 0.00 67 1012.7
20260503150918 54 111 0.0 0.0 0.00 0.00 0.00 99 1013.3
20260503150415 54 111 0.0 0.0 0.00 0.00 0.00 99 1013.2
20260503131302 48 117 0.0 0.0 0.00 0.00 0.00 99 1012.6
20260503130759 48 117 0.0 0.0 0.00 0.00 0.00 99 1012.5
20260503130257 48 118 0.0 0.0 0.00 0.00 0.00 99 1012.7
20260503110651 50 105 0.0 0.0 0.00 0.00 0.00 99 1012.9
20260503110148 50 105 0.0 0.0 0.00 0.00 0.00 99 1013.0
20260503100114 52 105 0.0 0.0 0.00 0.00 0.00 99 1012.9
20260503081504 54 105 0.0 0.0 0.00 0.00 0.00 97 1013.1
20260503081001 54 105 0.0 0.0 0.00 0.00 0.00 97 1013.1
20260503080457 54 105 0.0 0.0 0.00 0.00 0.00 97 1013.1
20260503072933 55 105 0.0 0.0 0.00 0.00 0.00 96 1013.3
20260503072431 55 105 0.0 0.0 0.00 0.00 0.00 96 1013.5
20260503071928 55 105 0.0 0.0 0.00 0.00 0.00 96 1013.4
20260503071425 55 105 0.0 0.0 0.00 0.00 0.00 96 1013.6
20260503070921 55 105 0.0 0.0 0.00 0.00 0.00 96 1013.4
20260503070418 56 105 0.0 0.0 0.00 0.00 0.00 95 1013.3
20260503060338 58 104 0.0 0.0 0.00 0.01 0.01 93 1013.2
20260503054826 58 104 0.0 0.0 0.00 0.01 0.01 92 1013.6
20260503054322 58 104 0.0 0.0 0.00 0.01 0.01 92 1013.4
20260503053820 58 104 0.0 0.0 0.00 0.01 0.01 92 1013.2
20260503053318 59 104 0.0 0.0 0.00 0.01 0.01 91 1012.9
20260503052814 59 104 0.0 0.0 0.00 0.01 0.01 91 1012.8
20260503052311 59 104 0.0 0.0 0.00 0.01 0.01 91 1012.9
20260503051807 59 104 0.0 0.0 0.00 0.01 0.01 90 1012.9
20260503051303 59 104 0.0 0.0 0.00 0.01 0.01 89 1012.9
20260503050800 60 104 0.0 0.0 0.00 0.01 0.01 89 1013.2
20260503050256 60 104 0.0 0.0 0.00 0.01 0.01 89 1013.2
20260503045754 60 104 0.0 0.0 0.00 0.01 0.01 89 1013.1
20260503045252 60 103 0.0 1.0 0.00 0.01 0.01 89 1013.0
20260503044748 60 104 0.0 0.0 0.00 0.01 0.01 89 1013.4
20260503044245 60 104 0.0 0.0 0.00 0.01 0.01 89 1013.2
20260503043742 60 104 0.0 0.0 0.00 0.01 0.01 88 1013.4
20260503043239 60 104 0.0 0.0 0.00 0.01 0.01 88 1013.5
20260503042735 60 104 0.0 0.0 0.00 0.01 0.01 87 1013.2
20260503042232 61 104 0.0 0.0 0.00 0.01 0.01 87 1013.6
20260503041728 61 104 0.0 0.0 0.00 0.01 0.01 86 1013.3
20260503041226 61 104 0.0 0.0 0.00 0.01 0.01 86 1013.4
20260503040723 61 104 0.0 0.0 0.00 0.01 0.01 86 1013.2
20260503040221 61 104 0.0 0.0 0.00 0.01 0.01 85 1013.2
20260503035717 61 104 0.0 0.0 0.00 0.01 0.01 85 1013.0
20260503035215 62 104 0.0 0.0 0.00 0.01 0.01 84 1013.3
20260503034712 62 104 0.0 0.0 0.00 0.01 0.01 83 1013.2
20260503034209 62 104 0.0 0.0 0.00 0.01 0.01 83 1013.0
20260503033706 62 104 0.0 0.0 0.00 0.01 0.01 82 1013.3
20260503033204 63 104 0.0 0.0 0.00 0.01 0.01 82 1013.3
20260503032702 63 104 0.0 0.0 0.00 0.01 0.01 81 1013.0
20260503032200 63 104 0.0 0.0 0.00 0.01 0.01 80 1013.0
20260503031657 63 104 0.0 0.0 0.00 0.01 0.01 80 1013.0
20260503031155 64 104 0.0 0.0 0.00 0.01 0.01 79 1013.0
20260503030650 64 106 0.0 0.0 0.00 0.01 0.01 78 1013.1
20260503030148 64 140 0.0 0.0 0.00 0.01 0.01 78 1013.1
20260503025644 64 103 0.0 0.0 0.00 0.01 0.01 77 1012.8
20260503025142 64 85 1.0 1.0 0.00 0.01 0.01 77 1013.0
20260503024638 65 128 0.0 0.0 0.00 0.01 0.01 77 1012.8
20260503024136 65 122 0.0 0.0 0.00 0.01 0.01 76 1012.8
20260503023633 66 140 0.0 1.0 0.00 0.01 0.01 76 1012.9
20260503023130 67 124 1.0 1.0 0.00 0.01 0.01 74 1012.9
20260503022625 68 126 1.0 1.0 0.00 0.01 0.01 72 1012.7
20260503022120 68 112 0.0 0.0 0.00 0.01 0.01 70 1012.5
20260503021618 68 169 1.0 1.0 0.00 0.01 0.01 69 1012.8
20260503021114 69 90 1.0 1.0 0.00 0.01 0.01 68 1012.7
20260503020611 69 110 0.0 1.0 0.00 0.01 0.01 69 1012.4
20260503020109 69 145 0.0 0.0 0.00 0.01 0.01 68 1012.3
20260503015605 69 110 0.0 0.0 0.00 0.01 0.01 67 1012.1
20260503015102 69 122 0.0 0.0 0.00 0.01 0.01 67 1011.9
20260503014558 69 111 0.0 1.0 0.00 0.01 0.01 66 1012.0
20260503014056 70 110 0.0 0.0 0.00 0.01 0.01 67 1011.8
20260503013553 70 115 0.0 0.0 0.00 0.01 0.01 66 1011.9
20260503013051 70 126 0.0 0.0 0.00 0.01 0.01 64 1011.8
20260503012548 70 158 0.0 0.0 0.00 0.01 0.01 66 1011.8
20260503012044 70 149 0.0 0.0 0.00 0.01 0.01 65 1011.9
20260503011541 70 152 0.0 0.0 0.00 0.01 0.01 65 1011.8
20260503011038 70 153 0.0 0.0 0.00 0.01 0.01 65 1011.9
20260503010534 71 153 0.0 0.0 0.00 0.01 0.01 66 1011.7
20260503010032 71 153 0.0 0.0 0.00 0.01 0.01 63 1011.6
20260503005529 71 131 0.0 1.0 0.00 0.01 0.01 63 1011.8
20260503005026 71 163 0.0 0.0 0.00 0.01 0.01 64 1011.8
20260503004522 71 165 0.0 1.0 0.00 0.01 0.01 62 1012.0
20260503004021 71 155 0.0 0.0 0.00 0.01 0.01 61 1012.0
20260503003517 72 124 0.0 0.0 0.00 0.01 0.01 61 1011.8
20260503003014 72 126 0.0 0.0 0.00 0.01 0.01 62 1011.8
20260503002511 71 104 0.0 1.0 0.00 0.01 0.01 61 1012.0
20260503002008 71 155 0.0 0.0 0.00 0.01 0.01 61 1011.8
20260503001504 71 165 0.0 1.0 0.00 0.01 0.01 61 1012.0
20260503001002 71 156 0.0 0.0 0.00 0.01 0.01 62 1011.7
20260503000459 71 93 0.0 1.0 0.00 0.01 0.01 61 1012.1
20260502235956 71 194 2.0 2.0 0.00 0.01 0.01 61 1012.0
20260502235452 71 138 0.0 0.0 0.00 0.01 0.01 63 1012.0
20260502234950 71 289 2.0 3.0 0.00 0.01 0.01 60 1011.9
20260502234446 71 115 0.0 0.0 0.00 0.01 0.01 63 1012.0
20260502233944 71 98 0.0 0.0 0.00 0.01 0.01 70 1012.1
20260502233439 71 284 1.0 1.0 0.00 0.01 0.01 62 1012.1
20260502232936 71 12 1.0 1.0 0.00 0.01 0.01 63 1012.3
20260502232432 71 301 0.0 0.0 0.00 0.01 0.01 63 1012.2
20260502231929 71 304 1.0 1.0 0.00 0.01 0.01 61 1012.4
20260502231427 71 272 2.0 2.0 0.00 0.01 0.01 62 1012.3
20260502230925 70 182 2.0 2.0 0.00 0.01 0.01 62 1012.5
20260502230422 71 205 1.0 1.0 0.00 0.01 0.01 62 1012.6
20260502225920 71 251 1.0 1.0 0.00 0.01 0.01 63 1012.7
20260502225416 70 305 1.0 1.0 0.00 0.01 0.01 64 1012.6
20260502224913 70 142 0.0 0.0 0.00 0.01 0.01 61 1012.8
20260502224409 71 162 0.0 1.0 0.00 0.01 0.01 61 1012.9
20260502223906 70 121 0.0 1.0 0.00 0.01 0.01 61 1013.0
20260502223404 70 98 0.0 0.0 0.00 0.01 0.01 62 1013.3
20260502222902 70 293 3.0 3.0 0.00 0.01 0.01 61 1013.2
20260502222359 70 192 1.0 1.0 0.00 0.01 0.01 61 1013.4
20260502221854 71 76 1.0 2.0 0.00 0.01 0.01 60 1013.5
20260502221351 71 104 0.0 1.0 0.00 0.01 0.01 61 1013.5
20260502220849 71 300 1.0 2.0 0.00 0.01 0.01 61 1013.8
20260502220344 70 142 0.0 0.0 0.00 0.01 0.01 61 1013.7
20260502215841 70 172 1.0 1.0 0.00 0.01 0.01 62 1013.9
20260502215339 70 112 0.0 0.0 0.00 0.01 0.01 61 1013.9
20260502214835 69 164 0.0 0.0 0.00 0.01 0.01 61 1014.1
20260502214332 68 169 0.0 0.0 0.00 0.01 0.01 63 1014.1
20260502213829 69 273 0.0 1.0 0.00 0.01 0.01 62 1014.1
20260502213326 69 173 0.0 1.0 0.00 0.01 0.01 63 1014.4
20260502212825 68 108 0.0 0.0 0.00 0.01 0.01 64 1014.2
20260502212323 68 143 0.0 0.0 0.00 0.01 0.01 62 1014.2
20260502211820 68 69 1.0 1.0 0.00 0.01 0.01 65 1014.2
20260502211310 68 224 1.0 1.0 0.00 0.01 0.01 63 1014.2
20260502210808 68 270 1.0 1.0 0.00 0.01 0.01 63 1014.5
20260502210305 67 107 0.0 1.0 0.00 0.01 0.01 66 1014.7
20260502205802 67 106 1.0 1.0 0.00 0.01 0.01 66 1014.9
20260502205258 68 265 2.0 2.0 0.00 0.01 0.01 64 1014.9
20260502204755 68 161 1.0 1.0 0.00 0.01 0.01 66 1015.0
20260502204252 67 156 0.0 0.0 0.00 0.01 0.01 66 1015.0
20260502203749 66 157 0.0 0.0 0.00 0.01 0.01 67 1014.9
20260502203242 66 121 0.0 0.0 0.00 0.01 0.01 70 1015.0
20260502202741 65 135 0.0 1.0 0.00 0.01 0.01 67 1015.2
20260502202240 64 11 1.0 1.0 0.00 0.01 0.01 70 1015.2
20260502201738 65 253 1.0 1.0 0.00 0.01 0.01 67 1015.2
20260502201233 65 102 0.0 0.0 0.00 0.01 0.01 69 1015.4
20260502200730 65 89 0.0 1.0 0.00 0.01 0.01 67 1015.1
20260502200226 64 172 0.0 1.0 0.00 0.01 0.01 69 1015.5
20260502195725 64 173 1.0 1.0 0.00 0.01 0.01 70 1015.4
20260502195221 64 150 0.0 0.0 0.00 0.01 0.01 69 1015.5
20260502194717 64 125 0.0 1.0 0.00 0.01 0.01 69 1015.6
20260502194215 63 182 0.0 1.0 0.00 0.01 0.01 72 1015.6
20260502193710 62 180 1.0 2.0 0.00 0.01 0.01 72 1015.7
20260502193208 64 183 1.0 2.0 0.00 0.01 0.01 72 1015.4
20260502192703 63 141 0.0 0.0 0.00 0.01 0.01 72 1015.8
20260502192200 61 171 1.0 1.0 0.00 0.01 0.01 74 1015.8
20260502191657 60 143 1.0 1.0 0.00 0.01 0.01 75 1015.9
20260502191155 60 279 1.0 2.0 0.00 0.01 0.01 76 1015.9
20260502190652 59 136 1.0 1.0 0.00 0.01 0.01 80 1015.7
20260502190150 59 257 0.0 1.0 0.00 0.01 0.01 78 1016.1
20260502185644 58 151 0.0 0.0 0.00 0.01 0.01 81 1015.8
20260502185141 58 142 0.0 1.0 0.00 0.01 0.01 81 1016.1
20260502184637 57 143 0.0 0.0 0.00 0.01 0.01 82 1015.8
20260502184133 57 9 1.0 1.0 0.00 0.01 0.01 81 1015.7
20260502183629 57 107 0.0 0.0 0.00 0.01 0.01 82 1016.0
20260502183120 57 151 0.0 1.0 0.00 0.01 0.01 82 1015.8
20260502182615 57 94 0.0 1.0 0.00 0.01 0.01 83 1016.0
20260502182111 56 138 0.0 1.0 0.00 0.01 0.01 83 1016.3
20260502181609 56 243 1.0 1.0 0.00 0.01 0.01 84 1016.2
20260502181108 56 111 0.0 1.0 0.00 0.01 0.01 84 1016.3
20260502180604 56 157 0.0 0.0 0.00 0.01 0.01 83 1016.4